User: anonymous   Login
Location: Unspecified
(0.0000°N, 0.0000°E)
Time: 00:18:29
(UTC+00:00)
Language:

WGS 9 (USA 275) - Orbit

View from above orbital plane
View from above orbital plane
View from above satellite
View from above satellite

Ground track
Ground track

The orbit data is extracted from the following two-line orbital elements,

1 42075U 17016A   17238.96807937 0.00000000  00000-0  00000-0 0    06
2 42075   0.0692 113.7098 0003459  23.8639 336.1504  1.00270000    00
Epoch (UTC): 26 August 2017 23:14:02
Eccentricity: 0.0003459
inclination: 0.0692°
perigee height: 35772 km
apogee height: 35801 km
right ascension of ascending node: 113.7098°
argument of perigee: 23.8639°
revolutions per day: 1.00270000
mean anomaly at epoch: 336.1504°
orbit number at epoch: 0

The dashed part of the orbit path shows where the satellite is in the earth's shadow,  

DLR